TimeEST,TemperatureF,Dew PointF,Humidity,Sea Level PressureIn,VisibilityMPH,Wind Direction,Wind SpeedMPH,Gust SpeedMPH,PrecipitationIn,Events,Conditions,WindDirDegrees,DateUTC
12:51 AM,30.9,21.9,69,29.92,10.0,WSW,8.1,-,N/A,,Scattered Clouds,240,2012-11-26 05:51:00
1:51 AM,32.0,21.9,66,29.93,10.0,WSW,6.9,-,N/A,,Overcast,240,2012-11-26 06:51:00
2:51 AM,32.0,21.0,64,29.94,10.0,WSW,9.2,-,N/A,,Overcast,240,2012-11-26 07:51:00
3:51 AM,32.0,21.0,64,29.94,10.0,WSW,6.9,-,N/A,,Mostly Cloudy,240,2012-11-26 08:51:00
4:51 AM,30.9,19.9,64,29.95,10.0,WSW,6.9,-,N/A,,Mostly Cloudy,250,2012-11-26 09:51:00
5:51 AM,30.9,21.0,67,29.97,10.0,WSW,8.1,-,N/A,,Mostly Cloudy,250,2012-11-26 10:51:00
6:51 AM,32.0,21.0,64,29.98,10.0,West,5.8,-,N/A,,Mostly Cloudy,260,2012-11-26 11:51:00
7:51 AM,35.1,21.9,59,30.00,10.0,West,8.1,-,N/A,,Mostly Cloudy,260,2012-11-26 12:51:00
8:51 AM,39.0,23.0,53,30.02,10.0,WSW,9.2,-,N/A,,Partly Cloudy,250,2012-11-26 13:51:00
9:51 AM,42.1,23.0,47,30.04,10.0,West,13.8,21.9,N/A,,Partly Cloudy,280,2012-11-26 14:51:00
10:51 AM,44.1,23.0,43,30.04,10.0,WNW,12.7,18.4,N/A,,Scattered Clouds,290,2012-11-26 15:51:00
11:51 AM,46.0,23.0,40,30.04,10.0,West,15.0,-,N/A,,Scattered Clouds,280,2012-11-26 16:51:00
12:51 PM,46.0,21.0,37,30.04,10.0,West,18.4,25.3,N/A,,Scattered Clouds,280,2012-11-26 17:51:00
1:51 PM,46.9,19.9,34,30.06,10.0,WNW,12.7,18.4,N/A,,Scattered Clouds,300,2012-11-26 18:51:00
2:51 PM,46.0,18.0,33,30.08,10.0,WNW,15.0,28.8,N/A,,Scattered Clouds,290,2012-11-26 19:51:00
3:51 PM,44.1,19.0,37,30.10,10.0,WNW,13.8,-,N/A,,Scattered Clouds,300,2012-11-26 20:51:00
4:51 PM,41.0,19.9,43,30.14,10.0,WNW,9.2,-,N/A,,Scattered Clouds,290,2012-11-26 21:51:00
5:51 PM,39.9,19.9,45,30.17,10.0,West,4.6,-,N/A,,Clear,280,2012-11-26 22:51:00
6:51 PM,37.0,21.0,52,30.20,10.0,West,8.1,-,N/A,,Clear,270,2012-11-26 23:51:00
7:51 PM,36.0,21.9,57,30.22,10.0,West,4.6,-,N/A,,Clear,280,2012-11-27 00:51:00
8:51 PM,35.1,21.9,59,30.23,10.0,West,4.6,-,N/A,,Clear,260,2012-11-27 01:51:00
9:51 PM,35.1,23.0,61,30.24,10.0,WSW,3.5,-,N/A,,Clear,250,2012-11-27 02:51:00
10:51 PM,33.1,23.0,66,30.25,10.0,West,3.5,-,N/A,,Clear,280,2012-11-27 03:51:00
11:51 PM,30.9,23.0,72,30.26,10.0,West,3.5,-,N/A,,Partly Cloudy,260,2012-11-27 04:51:00